Temperature
-2 -2 -1 -1 -1 -1 -0 -0 -0 -0 0 0 0 0 1 1 1 1 1 1 1 2 2 2 2 2 2 2 2 2 2 2 2 2 2 2 2 3 3 3 3 3 3
-3 -2 -2 -2 -1 -1 -1 -1 -1 -1 -1 -0 -0 -0 -0 -0 0 0 1 1 1 1 1 1 1 1 1 1 1 1 2 2 2 2 2 2 2 2 2 2 2 2 2
-3 -3 -3 -3 -2 -2 -2 -2 -1 -1 -1 -1 -1 -1 -1 -1 -1 -0 -0 -0 0 0 0 0 1 1 1 1 1 1 1 1 1 1 1 1 1 1 1 1 1 2 2
-4 -4 -4 -3 -3 -3 -3 -2 -2 -2 -2 -2 -2 -2 -2 -2 -2 -1 -1 -1 -1 -1 -0 -0 -0 0 0 0 0 0 0 0 0 0 0 0 0 0 0 1 1 1 1
-5 -5 -4 -4 -4 -4 -4 -3 -3 -3 -3 -3 -3 -2 -2 -2 -2 -2 -2 -2 -2 -1 -1 -1 -1 -0 -0 -0 -0 -0 -0 -0 -0 -0 -1 -1 -1 -0 -0 0 -0 0 0
-5 -5 -5 -5 -5 -4 -4 -4 -4 -4 -3 -3 -3 -3 -3 -3 -3 -3 -3 -2 -2 -2 -2 -2 -1 -1 -1 -1 -1 -1 -1 -1 -1 -1 -1 -1 -1 -1 -1 -1 -1 -1 -1
-6 -6 -6 -6 -5 -5 -5 -5 -5 -5 -4 -4 -4 -4 -4 -4 -3 -3 -3 -3 -3 -3 -3 -2 -2 -2 -2 -2 -2 -2 -2 -2 -1 -1 -1 -1 -1 -1 -1 -1 -1 -1 -1
-6 -6 -6 -6 -6 -6 -6 -6 -6 -5 -5 -5 -5 -5 -4 -4 -4 -4 -4 -4 -4 -4 -3 -3 -3 -3 -3 -3 -3 -3 -2 -2 -2 -2 -2 -2 -2 -2 -2 -1 -1 -2 -2
-7 -7 -7 -7 -7 -7 -6 -6 -6 -6 -6 -6 -6 -5 -5 -5 -5 -5 -5 -5 -4 -4 -4 -4 -4 -3 -3 -3 -3 -3 -3 -3 -3 -3 -3 -3 -3 -2 -2 -3 -3 -3 -3
-7 -7 -7 -7 -7 -7 -7 -7 -7 -7 -7 -6 -6 -6 -6 -6 -5 -5 -6 -5 -5 -5 -5 -5 -4 -4 -4 -4 -4 -4 -4 -4 -4 -4 -4 -3 -3 -3 -3 -3 -3 -3 -3
-8 -8 -8 -8 -8 -8 -8 -8 -8 -7 -7 -7 -7 -6 -6 -6 -6 -6 -6 -6 -6 -6 -5 -5 -5 -5 -5 -5 -5 -5 -4 -4 -4 -4 -4 -4 -4 -4 -4 -4 -4 -4 -4
-9 -8 -8 -8 -8 -8 -8 -8 -8 -8 -8 -8 -7 -7 -7 -7 -7 -7 -7 -7 -7 -7 -6 -6 -6 -6 -5 -5 -5 -5 -5 -5 -5 -5 -5 -5 -5 -5 -5 -5 -5 -5 -4
-9 -9 -9 -9 -9 -9 -9 -9 -9 -9 -9 -9 -8 -8 -8 -7 -7 -7 -7 -7 -7 -7 -7 -7 -7 -6 -6 -6 -6 -6 -6 -6 -6 -6 -6 -5 -5 -5 -5 -5 -5 -5 -5
-10 -9 -9 -9 -9 -9 -9 -9 -9 -9 -9 -9 -9 -9 -8 -8 -8 -8 -8 -8 -8 -8 -8 -7 -7 -7 -7 -7 -7 -6 -7 -7 -6 -6 -6 -6 -6 -6 -6 -6 -6 -6 -6
-10 -10 -10 -10 -10 -10 -10 -10 -10 -10 -10 -10 -10 -9 -9 -9 -9 -9 -9 -8 -8 -8 -8 -8 -8 -8 -8 -7 -7 -7 -7 -7 -7 -7 -7 -7 -7 -7 -7 -7 -7 -7 -7
-11 -11 -11 -11 -11 -11 -11 -10 -10 -10 -10 -10 -10 -10 -10 -10 -9 -9 -9 -9 -9 -9 -9 -9 -9 -9 -8 -8 -8 -8 -8 -8 -7 -7 -7 -7 -7 -7 -7 -7 -7 -7 -7
-11 -11 -11 -11 -11 -11 -11 -11 -11 -11 -11 -10 -10 -10 -10 -10 -10 -10 -9 -9 -9 -9 -10 -10 -9 -9 -9 -9 -8 -8 -8 -8 -8 -8 -8 -8 -8 -8 -8 -8 -8 -8 -8
-12 -12 -12 -12 -12 -12 -12 -12 -12 -12 -11 -11 -11 -11 -11 -10 -10 -10 -10 -10 -10 -10 -10 -10 -10 -10 -10 -9 -9 -9 -8 -8 -8 -8 -9 -9 -9 -9 -9 -9 -9 -9 -8
-12 -12 -12 -12 -12 -12 -12 -12 -12 -12 -12 -12 -11 -11 -11 -11 -11 -11 -11 -11 -11 -11 -11 -11 -11 -10 -10 -10 -10 -10 -9 -9 -9 -9 -9 -9 -9 -9 -9 -9 -9 -9 -9
-13 -13 -13 -13 -13 -13 -13 -13 -13 -13 -13 -12 -12 -12 -12 -12 -11 -11 -11 -11 -11 -11 -11 -11 -11 -11 -11 -11 -11 -10 -10 -10 -10 -10 -10 -10 -10 -10 -10 -10 -10 -10 -10
-13 -13 -14 -14 -14 -13 -13 -13 -13 -13 -13 -13 -13 -13 -13 -12 -12 -12 -12 -12 -12 -12 -12 -12 -12 -11 -11 -11 -11 -11 -11 -11 -10 -10 -10 -10 -10 -10 -10 -10 -10 -10 -10
-14 -14 -14 -14 -14 -14 -14 -14 -14 -14 -14 -14 -13 -13 -13 -13 -13 -13 -12 -12 -12 -12 -12 -12 -12 -12 -12 -12 -12 -11 -11 -11 -11 -11 -11 -11 -11 -11 -11 -11 -11 -11 -11
-14 -14 -14 -14 -14 -15 -15 -14 -14 -14 -14 -14 -14 -14 -14 -13 -13 -13 -13 -13 -13 -13 -13 -13 -13 -13 -12 -12 -12 -12 -12 -12 -11 -11 -11 -11 -11 -11 -11 -11 -11 -11 -11
-15 -15 -15 -15 -15 -15 -15 -15 -15 -15 -15 -15 -15 -15 -15 -14 -14 -14 -14 -14 -13 -13 -13 -13 -13 -13 -13 -13 -13 -13 -12 -12 -12 -12 -12 -12 -12 -12 -12 -11 -12 -12 -12
-15 -15 -15 -15 -16 -16 -16 -16 -16 -16 -16 -16 -15 -15 -15 -15 -15 -15 -14 -14 -14 -14 -14 -14 -13 -13 -13 -13 -13 -13 -13 -13 -13 -12 -12 -12 -12 -12 -12 -12 -12 -12 -12
-16 -16 -16 -16 -16 -16 -16 -16 -16 -16 -16 -16 -16 -16 -16 -16 -15 -15 -15 -15 -14 -14 -14 -14 -14 -14 -13 -13 -13 -13 -13 -13 -13 -13 -13 -13 -13 -13 -13 -13 -13 -13 -13
Wind_Speed
4 3 3 3 3 2 1 1 1 1 1 2 2 2 2 3 3 3 2 3 4 4 4 6 6 5 4 4 4 4 4 3 4 3 2 2 3 4 5 6 6 7 7
4 3 3 3 3 2 2 2 1 1 1 2 2 2 3 3 3 3 3 3 4 4 5 5 6 5 6 5 5 5 4 4 5 5 3 3 3 4 4 5 5 5 6
3 3 3 3 3 2 2 2 2 1 1 1 1 2 3 3 3 3 3 4 4 5 5 5 6 6 6 5 5 5 4 4 4 4 4 3 2 3 3 3 3 3 4
3 3 3 3 3 3 3 3 2 2 1 1 1 2 2 2 3 3 3 3 4 4 4 5 5 7 7 7 6 6 5 5 5 4 4 4 3 2 3 4 3 3 3
3 4 4 4 3 3 2 3 3 3 2 2 1 2 2 2 3 3 3 4 4 4 4 5 5 5 7 7 6 6 6 6 5 5 5 4 4 4 4 3 4 2 2
3 4 4 4 4 3 3 3 3 3 3 2 2 2 2 3 4 4 4 3 4 4 5 5 5 6 7 9 9 9 9 9 8 7 6 7 7 5 4 4 4 3 3
3 4 4 4 4 4 4 3 3 3 3 2 3 2 3 3 4 5 5 4 4 4 4 4 4 5 6 5 7 8 8 9 10 9 8 9 7 7 7 6 6 5 4
3 3 4 4 4 4 4 4 4 3 3 3 3 3 3 4 5 5 6 4 4 4 4 5 5 5 5 5 5 5 5 6 7 7 7 7 7 7 7 6 6 3 1
3 4 4 4 4 4 4 4 4 4 4 4 4 4 4 4 5 6 6 4 4 4 5 5 5 5 6 7 6 5 5 4 5 7 7 7 7 8 8 4 5 4 3
4 4 4 4 4 5 5 5 4 4 4 4 4 4 4 5 6 6 6 3 4 4 3 4 6 6 8 8 6 6 6 5 3 3 3 4 5 6 8 7 6 6 3
4 4 4 4 5 5 5 4 4 4 4 4 5 5 5 6 7 7 7 4 4 4 4 3 4 7 9 9 8 6 7 5 4 4 4 3 3 4 5 6 6 5 5
4 4 4 4 4 4 4 4 4 4 4 5 5 5 4 5 6 6 7 7 6 4 4 4 4 7 8 8 7 7 8 6 4 4 4 4 4 4 4 5 5 4 4
4 4 4 4 4 4 4 4 4 3 4 4 4 5 4 3 4 6 7 7 6 4 4 5 6 7 7 6 7 7 6 4 4 4 5 5 4 4 4 3 3 3 2
4 4 4 4 4 4 4 4 3 3 4 5 5 5 4 4 3 3 3 4 5 4 4 5 6 6 6 6 6 5 4 4 5 5 4 3 3 3 3 3 3 3 2
4 4 4 4 4 3 3 3 4 4 4 5 4 4 5 5 5 6 4 3 3 4 3 2 2 2 3 3 4 4 4 4 4 4 4 3 4 4 4 3 3 3 3
4 3 3 3 3 3 3 4 6 6 8 9 8 6 6 7 8 7 7 6 6 5 3 3 3 3 3 4 4 4 4 4 4 4 4 5 5 5 4 3 4 4 4
4 4 3 3 3 3 3 3 4 5 7 8 8 8 8 8 8 7 6 6 5 4 3 2 3 3 3 3 4 4 4 4 4 4 4 5 5 5 5 5 5 4 4
4 5 4 3 3 3 3 3 3 4 4 5 6 8 9 8 8 7 6 5 3 2 2 2 3 3 3 3 3 3 3 3 4 4 4 5 5 5 5 5 5 5 5
4 3 3 3 3 3 3 3 3 3 4 4 4 6 8 8 7 6 5 2 2 2 2 2 2 2 2 2 2 3 3 4 4 4 4 5 5 5 5 5 6 7 6
3 5 4 3 3 2 2 3 3 3 3 4 4 4 5 4 3 4 3 2 2 2 2 2 2 2 2 2 2 2 3 3 4 4 4 5 5 5 6 6 6 6 5
3 4 5 4 3 3 2 3 3 3 3 3 4 5 6 3 3 3 2 2 2 2 2 2 2 2 2 2 2 3 3 3 4 5 5 5 5 5 5 5 5 6 5
3 3 2 3 3 3 3 2 3 3 3 4 4 5 7 4 3 3 3 3 2 2 3 2 2 2 2 2 2 2 3 3 4 4 4 4 4 5 5 5 5 5 5
2 3 3 3 3 4 4 3 3 3 3 3 4 4 4 4 4 4 3 3 3 3 3 2 3 3 2 2 2 2 3 4 3 4 4 4 4 4 4 5 6 6 6
2 2 2 3 3 3 3 3 3 3 3 3 4 4 4 4 4 4 4 3 3 3 3 3 3 3 3 3 4 4 4 5 5 5 5 5 4 4 4 4 5 6 6
2 2 2 2 3 3 3 3 3 3 4 4 4 4 4 4 4 4 4 4 4 4 4 4 4 4 4 4 5 5 6 7 6 5 5 5 5 5 5 5 5 5 5
2 2 2 2 2 3 3 3 3 4 4 4 4 4 4 4 4 5 5 4 4 4 4 4 4 5 5 6 6 7 7 8 7 8 6 5 5 5 5 5 5 5 6
Wind_Direction
338 332 327 326 325 321 304 290 278 269 227 210 202 202 210 215 211 205 213 210 211 216 215 208 209 202 200 202 200 199 202 193 213 232 220 194 184 193 204 202 207 206 211
335 329 321 316 319 318 307 299 291 274 258 236 217 207 218 224 218 212 216 217 216 219 220 212 212 206 202 200 200 205 205 203 202 211 211 201 210 199 190 189 202 207 213
336 329 319 316 313 312 311 310 302 283 276 259 228 217 222 227 228 226 220 222 221 224 224 221 215 204 208 203 201 206 206 206 200 197 206 202 209 192 188 194 191 197 213
328 323 311 308 305 303 312 312 309 301 279 263 243 236 234 235 237 234 227 228 226 224 223 227 221 206 205 204 208 206 202 198 192 191 191 193 200 187 183 189 197 205 215
320 314 309 313 313 311 308 310 309 304 289 274 258 246 239 238 237 232 230 232 228 224 227 227 224 213 210 208 209 203 201 198 193 195 196 196 198 183 202 196 199 197 229
307 306 313 321 324 322 316 311 307 295 292 288 275 261 251 250 258 251 239 239 239 230 232 233 225 218 215 218 216 210 205 204 202 204 210 208 210 202 197 195 186 188 232
303 312 316 319 322 324 323 321 312 303 293 284 276 266 263 265 268 263 253 246 245 239 234 232 232 230 220 218 221 216 217 218 214 208 206 212 208 200 192 198 197 205 226
298 306 314 317 316 318 319 313 312 310 298 287 282 274 270 274 275 273 267 249 244 241 237 230 227 230 225 211 207 213 220 225 220 217 212 210 212 198 200 205 194 189 174
293 298 304 306 307 310 305 303 305 302 293 286 280 270 266 273 272 268 268 259 252 248 240 232 224 222 229 218 209 212 220 231 229 218 216 210 209 206 199 182 177 187 225
287 291 296 297 295 294 293 296 297 293 286 283 281 272 264 266 269 267 262 254 256 257 245 234 231 228 228 221 212 205 211 216 209 212 211 212 205 203 205 205 196 199 215
289 292 293 293 290 288 291 294 292 290 291 287 285 278 268 268 270 265 255 245 241 250 247 242 237 234 233 227 217 212 218 208 198 203 210 212 205 201 202 202 200 203 210
295 292 291 290 289 291 291 291 292 290 290 288 285 278 270 268 269 264 257 249 243 238 242 245 241 236 238 235 230 223 223 217 201 204 211 213 211 213 206 191 192 198 211
290 288 291 290 287 287 283 284 284 279 277 278 281 280 278 274 273 270 269 262 251 245 243 245 249 243 243 241 237 230 226 216 203 205 213 215 209 199 181 169 162 164 182
286 289 293 292 292 291 286 279 276 274 273 273 275 281 282 281 279 275 270 269 260 255 256 254 253 254 248 240 236 231 222 215 209 209 210 208 188 181 188 187 187 182 190
289 286 289 288 287 286 283 277 279 273 275 276 271 268 275 275 274 274 267 261 254 251 255 257 252 242 238 231 221 213 207 209 215 201 195 194 196 196 201 194 193 192 207
290 287 285 285 284 283 285 295 293 293 297 293 285 277 276 278 284 276 270 268 267 263 258 243 239 238 234 231 220 212 207 209 207 203 199 196 200 201 203 200 199 200 208
286 288 286 282 283 287 289 291 301 308 306 307 304 296 292 291 290 281 278 274 267 256 250 240 237 237 238 231 223 216 216 208 200 200 200 198 198 201 203 206 206 207 214
291 290 292 285 283 284 285 288 292 301 311 313 313 311 308 305 303 296 283 276 264 252 248 245 247 245 239 234 230 223 215 200 195 198 199 199 200 201 205 209 210 210 214
294 291 291 292 290 290 293 297 298 299 304 310 318 320 319 316 319 321 315 282 270 266 264 259 256 255 250 240 233 224 213 207 204 201 203 204 202 204 209 211 211 215 217
298 301 308 306 304 307 306 303 303 306 310 314 315 314 318 320 321 320 316 308 290 287 282 280 276 263 250 239 231 222 218 212 207 207 207 207 206 206 209 211 210 212 216
305 305 308 312 311 306 303 302 303 303 305 307 308 312 319 316 312 315 312 308 302 298 293 286 281 273 258 247 238 225 219 220 214 209 209 207 206 210 211 211 211 211 211
304 306 308 305 309 308 308 308 307 306 306 309 317 320 323 328 326 316 308 304 304 302 298 287 280 279 270 256 249 240 230 227 219 210 205 205 207 211 211 211 212 212 211
303 306 312 311 309 307 315 315 312 309 309 311 315 319 321 320 317 313 313 311 304 301 302 294 287 296 304 291 272 252 240 232 226 215 210 210 213 213 213 214 212 212 215
301 303 308 313 316 313 309 311 311 308 307 308 310 311 312 312 311 309 308 310 307 302 301 294 289 292 299 296 284 275 267 254 237 224 215 215 218 219 217 216 218 218 218
306 303 304 304 307 309 310 310 310 311 307 306 308 311 315 315 314 312 311 309 303 299 297 293 292 290 286 286 285 278 276 272 256 237 222 218 217 216 217 219 222 222 223
309 305 300 299 298 298 300 303 306 308 308 307 307 309 310 310 311 312 312 311 308 306 302 295 291 286 284 282 283 282 279 276 265 250 232 219 215 217 214 220 221 224 225
Height
1467 1467 1466 1465 1465 1465 1465 1466 1467 1467 1469 1470 1470 1471 1472 1473 1474 1475 1477 1479 1480 1482 1484 1486 1487 1490 1492 1495 1497 1499 1501 1503 1504 1506 1509 1511 1514 1516 1517 1519 1521 1523 1525
1465 1464 1463 1463 1462 1462 1462 1462 1463 1464 1465 1466 1466 1467 1468 1469 1470 1470 1472 1473 1475 1477 1479 1480 1482 1484 1486 1489 1491 1493 1495 1497 1499 1500 1503 1505 1508 1510 1512 1513 1515 1518 1520
1463 1461 1461 1460 1459 1459 1459 1459 1460 1460 1461 1462 1462 1463 1463 1464 1465 1466 1467 1468 1470 1472 1473 1475 1477 1478 1480 1482 1485 1487 1489 1492 1494 1495 1496 1499 1502 1504 1506 1508 1510 1512 1514
1460 1459 1458 1457 1456 1456 1455 1456 1456 1456 1456 1457 1458 1459 1459 1460 1461 1462 1463 1464 1465 1466 1468 1469 1471 1472 1475 1477 1479 1481 1484 1486 1488 1490 1491 1493 1496 1498 1500 1501 1503 1506 1508
1457 1456 1455 1454 1453 1453 1452 1452 1452 1452 1453 1453 1453 1454 1454 1455 1456 1458 1459 1459 1460 1461 1463 1464 1465 1467 1469 1471 1473 1475 1478 1479 1482 1483 1485 1487 1489 1492 1494 1495 1497 1499 1502
1454 1453 1452 1451 1450 1449 1449 1448 1448 1449 1449 1449 1449 1450 1450 1451 1452 1453 1454 1455 1455 1456 1457 1458 1460 1462 1463 1465 1467 1469 1472 1473 1475 1477 1478 1480 1482 1485 1488 1490 1491 1493 1495
1450 1449 1449 1448 1446 1446 1445 1445 1444 1444 1444 1444 1445 1445 1445 1446 1447 1448 1449 1450 1450 1451 1452 1453 1454 1455 1457 1460 1462 1464 1465 1467 1470 1471 1472 1474 1476 1479 1482 1484 1486 1487 1489
1447 1446 1445 1444 1443 1443 1442 1441 1441 1441 1441 1441 1441 1441 1441 1441 1442 1443 1444 1445 1445 1446 1446 1447 1448 1449 1452 1454 1456 1457 1459 1461 1463 1465 1467 1469 1472 1474 1477 1479 1480 1482 1484
1444 1443 1442 1441 1441 1440 1439 1438 1438 1437 1437 1437 1437 1436 1436 1436 1437 1438 1439 1439 1440 1440 1441 1442 1443 1444 1446 1449 1450 1452 1453 1455 1458 1460 1462 1464 1466 1469 1471 1473 1474 1476 1477
1441 1440 1439 1439 1438 1437 1436 1435 1435 1434 1433 1433 1432 1432 1432 1432 1433 1433 1434 1434 1435 1435 1436 1436 1438 1440 1441 1443 1445 1446 1447 1449 1452 1454 1456 1458 1460 1462 1465 1467 1469 1470 1470
1438 1437 1436 1436 1435 1434 1432 1432 1431 1430 1429 1429 1428 1427 1427 1427 1428 1428 1429 1430 1430 1430 1430 1431 1433 1434 1436 1438 1439 1440 1442 1445 1447 1448 1450 1452 1453 1456 1458 1460 1463 1465 1465
1435 1433 1433 1432 1431 1430 1429 1428 1428 1427 1425 1424 1424 1423 1423 1423 1423 1423 1424 1425 1426 1426 1426 1427 1428 1429 1431 1432 1433 1435 1438 1440 1441 1442 1444 1445 1447 1449 1451 1454 1457 1459 1460
1431 1430 1429 1428 1427 1427 1426 1425 1424 1423 1422 1421 1420 1419 1418 1418 1419 1419 1420 1420 1420 1421 1421 1422 1423 1424 1425 1427 1428 1430 1432 1434 1435 1436 1438 1439 1442 1444 1447 1449 1451 1452 1454
1427 1426 1425 1425 1424 1423 1422 1421 1420 1419 1418 1417 1417 1416 1415 1414 1414 1414 1415 1415 1416 1416 1416 1416 1417 1418 1420 1421 1422 1424 1426 1428 1429 1431 1432 1435 1437 1439 1441 1443 1445 1446 1448
1424 1423 1422 1421 1420 1419 1419 1418 1417 1416 1416 1415 1413 1413 1412 1410 1411 1411 1411 1411 1411 1411 1412 1412 1412 1413 1414 1415 1416 1418 1420 1422 1424 1425 1427 1429 1431 1433 1435 1437 1439 1441 1442
1420 1419 1418 1418 1417 1416 1415 1414 1413 1413 1412 1411 1410 1409 1408 1408 1407 1407 1407 1407 1407 1408 1408 1407 1407 1408 1408 1409 1411 1413 1415 1416 1418 1420 1422 1424 1426 1428 1430 1432 1434 1435 1436
1417 1416 1415 1415 1414 1413 1411 1410 1409 1408 1408 1407 1406 1405 1404 1404 1403 1403 1403 1403 1403 1403 1403 1402 1403 1403 1404 1405 1406 1408 1409 1411 1413 1415 1417 1419 1421 1423 1425 1426 1428 1429 1431
1414 1413 1412 1411 1410 1410 1409 1407 1406 1405 1403 1402 1402 1401 1401 1400 1399 1399 1399 1399 1398 1398 1398 1398 1399 1400 1400 1401 1402 1403 1405 1406 1408 1410 1411 1413 1415 1417 1419 1421 1422 1424 1426
1411 1410 1409 1408 1408 1407 1406 1405 1404 1402 1401 1400 1398 1398 1397 1396 1396 1395 1395 1395 1394 1394 1394 1395 1395 1396 1396 1397 1398 1398 1400 1401 1403 1404 1406 1408 1410 1412 1413 1415 1417 1419 1421
1408 1408 1407 1406 1405 1404 1403 1402 1401 1400 1399 1397 1396 1395 1394 1393 1392 1392 1392 1392 1391 1391 1391 1391 1391 1392 1393 1393 1393 1394 1395 1396 1397 1399 1401 1403 1405 1406 1408 1410 1412 1414 1415
1406 1405 1404 1403 1402 1401 1401 1400 1399 1398 1396 1395 1394 1393 1392 1391 1390 1389 1389 1389 1388 1388 1388 1388 1388 1389 1389 1389 1389 1390 1390 1391 1393 1394 1396 1397 1399 1401 1403 1405 1407 1408 1410
1403 1403 1402 1401 1400 1399 1398 1397 1396 1395 1394 1392 1391 1390 1390 1389 1387 1387 1386 1386 1386 1386 1386 1386 1386 1385 1385 1385 1385 1385 1386 1387 1388 1389 1391 1392 1394 1396 1398 1400 1401 1403 1405
1401 1401 1400 1399 1398 1397 1396 1395 1393 1392 1391 1390 1389 1388 1387 1386 1385 1384 1383 1383 1382 1382 1382 1382 1381 1381 1381 1381 1381 1382 1382 1383 1384 1385 1386 1387 1389 1391 1392 1394 1396 1397 1399
1399 1398 1397 1396 1395 1394 1393 1392 1391 1389 1388 1387 1386 1385 1384 1383 1382 1381 1380 1380 1379 1379 1379 1378 1378 1377 1377 1377 1378 1378 1378 1379 1380 1381 1381 1382 1383 1385 1387 1388 1390 1392 1393
1397 1396 1394 1393 1392 1391 1390 1389 1388 1387 1386 1385 1384 1382 1381 1380 1379 1378 1377 1377 1376 1375 1375 1374 1374 1374 1374 1374 1374 1374 1375 1375 1375 1376 1377 1378 1379 1380 1382 1383 1385 1386 1388
1394 1393 1392 1391 1390 1388 1387 1386 1385 1384 1383 1382 1381 1380 1378 1377 1376 1375 1374 1373 1372 1372 1371 1371 1371 1371 1370 1370 1371 1371 1371 1371 1371 1372 1373 1373 1374 1375 1377 1378 1380 1381 1383